Location: Sauerland
(51.1981°N, 7.8053°E)
Time: 20:05:43
(UTC+01:00)

ISS - Visible Passes

Search period start: 04 December 2023 00:00
Search period end: 14 December 2023 00:00
Orbit: 415 x 417 km, 51.6° (Epoch: 04 December)

Date Brightness Start Highest point End Pass type
(mag) Time Alt. Az. Time Alt. Az. Time Alt. Az.
04 Dec -2.2 17:28:03 10° W 17:31:12 37° SSW 17:34:19 10° SE visible
05 Dec -0.7 18:17:10 10° WSW 18:18:55 14° SW 18:20:40 10° S visible
06 Dec -0.9 17:28:05 10° W 17:30:36 20° SW 17:33:06 10° SSE visible
